Time,TemperatureF,DewpointF,PressureIn,WindDirection,WindDirectionDegrees,WindSpeedMPH,WindSpeedGustMPH,Humidity,HourlyPrecipIn,Conditions,Clouds,dailyrainin,SoftwareType,DateUTC
2013-01-16 00:00:00,12.7,9.6,30.37,SW,221,1.0,3.0,87,0.00,,---,0.00,VWS V14.01,2013-01-16 09:00:00,
2013-01-16 00:01:00,12.7,9.6,30.37,SW,221,0.0,1.0,87,0.00,,---,0.00,VWS V14.01,2013-01-16 09:01:00,
2013-01-16 00:06:00,12.7,9.6,30.37,SW,221,0.0,2.0,87,0.00,,---,0.00,VWS V14.01,2013-01-16 09:06:00,
2013-01-16 00:11:00,12.7,9.6,30.37,SW,221,0.0,2.0,87,0.00,,---,0.00,VWS V14.01,2013-01-16 09:11:00,
2013-01-16 00:16:00,12.7,9.6,30.37,SW,221,0.0,2.0,87,0.00,,---,0.00,VWS V14.01,2013-01-16 09:16:00,
2013-01-16 00:21:00,12.7,9.6,30.37,SW,221,0.0,2.0,87,0.00,,---,0.00,VWS V14.01,2013-01-16 09:21:00,
2013-01-16 00:26:00,12.7,9.6,30.37,SW,221,0.0,2.0,87,0.00,,---,0.00,VWS V14.01,2013-01-16 09:26:00,
2013-01-16 00:30:00,12.8,9.4,30.37,SW,221,0.0,2.0,86,0.00,,---,0.00,VWS V14.01,2013-01-16 09:30:00,
2013-01-16 00:31:00,12.9,9.5,30.37,SW,221,0.0,0.0,86,0.00,,---,0.00,VWS V14.01,2013-01-16 09:31:00,
2013-01-16 00:36:00,12.8,9.4,30.37,SW,221,0.0,2.0,86,0.00,,---,0.00,VWS V14.01,2013-01-16 09:36:00,
2013-01-16 00:41:00,12.8,9.4,30.37,SW,221,0.0,2.0,86,0.00,,---,0.00,VWS V14.01,2013-01-16 09:41:00,
2013-01-16 00:46:00,12.7,9.6,30.37,SW,221,0.0,2.0,87,0.00,,---,0.00,VWS V14.01,2013-01-16 09:46:00,
2013-01-16 00:51:00,12.7,9.6,30.37,SW,221,0.0,2.0,87,0.00,,---,0.00,VWS V14.01,2013-01-16 09:51:00,
2013-01-16 00:56:00,12.7,9.6,30.37,SW,221,0.0,2.0,87,0.00,,---,0.00,VWS V14.01,2013-01-16 09:56:00,
2013-01-16 01:00:00,12.7,9.3,30.37,SW,221,0.0,2.0,86,0.00,,---,0.00,VWS V14.01,2013-01-16 10:00:00,
2013-01-16 01:01:00,12.7,9.3,30.37,SW,221,0.0,0.0,86,0.00,,---,0.00,VWS V14.01,2013-01-16 10:01:00,
2013-01-16 01:06:00,12.7,9.3,30.37,SW,221,1.0,1.0,86,0.00,,---,0.00,VWS V14.01,2013-01-16 10:06:00,
2013-01-16 01:11:00,12.7,9.3,30.37,SW,221,0.0,1.0,86,0.00,,---,0.00,VWS V14.01,2013-01-16 10:11:00,
2013-01-16 01:16:00,12.7,9.3,30.37,SW,221,0.0,1.0,86,0.00,,---,0.00,VWS V14.01,2013-01-16 10:16:00,
2013-01-16 01:21:00,12.7,9.3,30.37,SW,221,0.0,1.0,86,0.00,,---,0.00,VWS V14.01,2013-01-16 10:21:00,
2013-01-16 01:26:00,12.7,9.3,30.37,SW,221,0.0,1.0,86,0.00,,---,0.00,VWS V14.01,2013-01-16 10:26:00,
2013-01-16 01:30:00,12.8,9.4,30.37,SW,221,0.0,1.0,86,0.00,,---,0.00,VWS V14.01,2013-01-16 10:30:00,
2013-01-16 01:31:00,12.8,9.4,30.37,SW,221,0.0,1.0,86,0.00,,---,0.00,VWS V14.01,2013-01-16 10:31:00,
2013-01-16 01:36:00,12.8,9.4,30.37,SW,221,0.0,0.0,86,0.00,,---,0.00,VWS V14.01,2013-01-16 10:36:00,
2013-01-16 01:41:00,12.8,9.4,30.37,SW,221,0.0,0.0,86,0.00,,---,0.00,VWS V14.01,2013-01-16 10:41:00,
2013-01-16 01:46:00,12.9,9.2,30.37,SW,221,0.0,1.0,85,0.00,,---,0.00,VWS V14.01,2013-01-16 10:46:00,
2013-01-16 01:51:00,12.9,9.2,30.37,SW,221,0.0,1.0,85,0.00,,---,0.00,VWS V14.01,2013-01-16 10:51:00,
2013-01-16 01:56:00,12.9,9.2,30.37,SW,221,0.0,1.0,85,0.00,,---,0.00,VWS V14.01,2013-01-16 10:56:00,
2013-01-16 02:00:00,12.8,9.1,30.37,SW,221,0.0,1.0,85,0.00,,---,0.00,VWS V14.01,2013-01-16 11:00:00,
2013-01-16 02:01:00,12.8,9.1,30.37,SW,221,0.0,1.0,85,0.00,,---,0.00,VWS V14.01,2013-01-16 11:01:00,
2013-01-16 02:06:00,12.8,9.4,30.37,SW,221,0.0,2.0,86,0.00,,---,0.00,VWS V14.01,2013-01-16 11:06:00,
2013-01-16 02:11:00,12.8,9.1,30.37,SW,221,0.0,2.0,85,0.00,,---,0.00,VWS V14.01,2013-01-16 11:11:00,
2013-01-16 02:16:00,12.8,9.1,30.37,SW,221,0.0,2.0,85,0.00,,---,0.00,VWS V14.01,2013-01-16 11:16:00,
2013-01-16 02:21:00,12.8,9.4,30.37,SW,221,0.0,2.0,86,0.00,,---,0.00,VWS V14.01,2013-01-16 11:21:00,
2013-01-16 02:26:00,12.9,9.5,30.37,SW,221,0.0,2.0,86,0.00,,---,0.00,VWS V14.01,2013-01-16 11:26:00,
2013-01-16 02:30:00,13.0,9.4,30.37,SW,221,0.0,2.0,85,0.00,,---,0.00,VWS V14.01,2013-01-16 11:30:00,
2013-01-16 02:31:00,13.0,9.4,30.37,SW,221,0.0,2.0,85,0.00,,---,0.00,VWS V14.01,2013-01-16 11:31:00,
2013-01-16 02:36:00,13.1,9.4,30.37,SW,221,1.0,2.0,85,0.00,,---,0.00,VWS V14.01,2013-01-16 11:36:00,
2013-01-16 02:41:00,13.1,9.4,30.37,SW,221,0.0,2.0,85,0.00,,---,0.00,VWS V14.01,2013-01-16 11:41:00,
2013-01-16 02:46:00,13.1,9.7,30.37,SW,221,0.0,2.0,86,0.00,,---,0.00,VWS V14.01,2013-01-16 11:46:00,
2013-01-16 02:51:00,13.1,9.7,30.37,SW,221,0.0,2.0,86,0.00,,---,0.00,VWS V14.01,2013-01-16 11:51:00,
2013-01-16 02:56:00,13.2,9.8,30.37,SW,221,0.0,2.0,86,0.00,,---,0.00,VWS V14.01,2013-01-16 11:56:00,
2013-01-16 03:00:00,13.2,9.8,30.36,SW,221,0.0,2.0,86,0.00,,---,0.00,VWS V14.01,2013-01-16 12:00:00,
2013-01-16 03:01:00,13.2,9.8,30.36,SW,221,0.0,2.0,86,0.00,,---,0.00,VWS V14.01,2013-01-16 12:01:00,
2013-01-16 03:06:00,13.2,9.8,30.36,SW,221,0.0,1.0,86,0.00,,---,0.00,VWS V14.01,2013-01-16 12:06:00,
2013-01-16 03:11:00,13.3,9.6,30.36,SW,221,0.0,1.0,85,0.00,,---,0.00,VWS V14.01,2013-01-16 12:11:00,
2013-01-16 03:16:00,13.2,9.8,30.36,SW,221,0.0,2.0,86,0.00,,---,0.00,VWS V14.01,2013-01-16 12:16:00,
2013-01-16 03:21:00,13.2,9.8,30.36,SW,221,0.0,0.0,86,0.00,,---,0.00,VWS V14.01,2013-01-16 12:21:00,
2013-01-16 03:26:00,13.3,9.6,30.36,SW,221,0.0,2.0,85,0.00,,---,0.00,VWS V14.01,2013-01-16 12:26:00,
2013-01-16 03:30:00,13.2,9.6,30.36,SW,221,0.0,2.0,85,0.00,,---,0.00,VWS V14.01,2013-01-16 12:30:00,
2013-01-16 03:31:00,13.2,9.6,30.36,SW,221,0.0,2.0,85,0.00,,---,0.00,VWS V14.01,2013-01-16 12:31:00,
2013-01-16 03:36:00,13.2,9.6,30.36,SW,221,0.0,0.0,85,0.00,,---,0.00,VWS V14.01,2013-01-16 12:36:00,
2013-01-16 03:41:00,13.0,9.4,30.36,SW,221,0.0,0.0,85,0.00,,---,0.00,VWS V14.01,2013-01-16 12:41:00,
2013-01-16 03:46:00,13.0,9.6,30.35,SW,221,0.0,0.0,86,0.00,,---,0.00,VWS V14.01,2013-01-16 12:46:00,
2013-01-16 03:51:00,12.9,9.2,30.35,SW,221,0.0,0.0,85,0.00,,---,0.00,VWS V14.01,2013-01-16 12:51:00,
2013-01-16 03:56:00,12.8,9.4,30.35,SW,221,0.0,0.0,86,0.00,,---,0.00,VWS V14.01,2013-01-16 12:56:00,
2013-01-16 04:00:00,13.0,9.4,30.35,SW,221,0.0,1.0,85,0.00,,---,0.00,VWS V14.01,2013-01-16 13:00:00,
2013-01-16 04:01:00,13.0,9.4,30.35,SW,221,1.0,1.0,85,0.00,,---,0.00,VWS V14.01,2013-01-16 13:01:00,
2013-01-16 04:06:00,13.1,9.4,30.35,SW,221,0.0,1.0,85,0.00,,---,0.00,VWS V14.01,2013-01-16 13:06:00,
2013-01-16 04:11:00,13.2,9.6,30.35,SW,221,0.0,1.0,85,0.00,,---,0.00,VWS V14.01,2013-01-16 13:11:00,
2013-01-16 04:16:00,13.2,9.6,30.35,SW,221,0.0,1.0,85,0.00,,---,0.00,VWS V14.01,2013-01-16 13:16:00,
2013-01-16 04:21:00,13.1,9.4,30.35,SW,221,0.0,1.0,85,0.00,,---,0.00,VWS V14.01,2013-01-16 13:21:00,
2013-01-16 04:26:00,13.0,9.4,30.34,SW,221,0.0,1.0,85,0.00,,---,0.00,VWS V14.01,2013-01-16 13:26:00,
2013-01-16 04:30:00,13.2,9.8,30.34,SW,221,0.0,1.0,86,0.00,,---,0.00,VWS V14.01,2013-01-16 13:30:00,
2013-01-16 04:31:00,13.0,9.6,30.34,SW,221,0.0,1.0,86,0.00,,---,0.00,VWS V14.01,2013-01-16 13:31:00,
2013-01-16 04:36:00,13.0,9.6,30.34,SW,221,0.0,0.0,86,0.00,,---,0.00,VWS V14.01,2013-01-16 13:36:00,
2013-01-16 04:41:00,13.0,9.6,30.34,SW,221,0.0,0.0,86,0.00,,---,0.00,VWS V14.01,2013-01-16 13:41:00,
2013-01-16 04:46:00,13.0,9.6,30.34,SW,221,0.0,0.0,86,0.00,,---,0.00,VWS V14.01,2013-01-16 13:46:00,
2013-01-16 04:51:00,13.0,9.6,30.34,SW,221,0.0,0.0,86,0.00,,---,0.00,VWS V14.01,2013-01-16 13:51:00,
2013-01-16 04:56:00,12.9,9.5,30.33,SW,221,0.0,1.0,86,0.00,,---,0.00,VWS V14.01,2013-01-16 13:56:00,
2013-01-16 05:00:00,12.9,9.5,30.33,SW,221,0.0,1.0,86,0.00,,---,0.00,VWS V14.01,2013-01-16 14:00:00,
2013-01-16 05:01:00,12.8,9.4,30.33,SW,221,0.0,1.0,86,0.00,,---,0.00,VWS V14.01,2013-01-16 14:01:00,
2013-01-16 05:06:00,12.8,9.4,30.33,SW,221,0.0,0.0,86,0.00,,---,0.00,VWS V14.01,2013-01-16 14:06:00,
2013-01-16 05:11:00,12.8,9.4,30.33,SW,221,0.0,1.0,86,0.00,,---,0.00,VWS V14.01,2013-01-16 14:11:00,
2013-01-16 05:16:00,12.8,9.4,30.32,SW,221,0.0,1.0,86,0.00,,---,0.00,VWS V14.01,2013-01-16 14:16:00,
2013-01-16 05:21:00,12.9,9.2,30.32,SW,221,0.0,1.0,85,0.00,,---,0.00,VWS V14.01,2013-01-16 14:21:00,
2013-01-16 05:26:00,13.1,9.7,30.32,SW,221,0.0,1.0,86,0.00,,---,0.00,VWS V14.01,2013-01-16 14:26:00,
2013-01-16 05:30:00,13.3,9.6,30.32,SW,221,0.0,1.0,85,0.00,,---,0.00,VWS V14.01,2013-01-16 14:30:00,
2013-01-16 05:31:00,13.2,9.6,30.32,SW,221,0.0,1.0,85,0.00,,---,0.00,VWS V14.01,2013-01-16 14:31:00,
2013-01-16 05:36:00,13.3,9.6,30.32,SW,221,0.0,1.0,85,0.00,,---,0.00,VWS V14.01,2013-01-16 14:36:00,
2013-01-16 05:41:00,13.3,9.6,30.32,SW,221,0.0,1.0,85,0.00,,---,0.00,VWS V14.01,2013-01-16 14:41:00,
2013-01-16 05:46:00,13.3,9.6,30.32,SW,221,0.0,1.0,85,0.00,,---,0.00,VWS V14.01,2013-01-16 14:46:00,
2013-01-16 05:51:00,13.4,9.7,30.32,SW,221,0.0,1.0,85,0.00,,---,0.00,VWS V14.01,2013-01-16 14:51:00,
2013-01-16 05:56:00,13.5,9.6,30.31,SW,221,0.0,1.0,84,0.00,,---,0.00,VWS V14.01,2013-01-16 14:56:00,
2013-01-16 06:00:00,14.3,10.4,30.31,SW,221,0.0,1.0,84,0.00,,---,0.00,VWS V14.01,2013-01-16 15:00:00,
2013-01-16 06:01:00,13.5,9.6,30.31,SW,221,0.0,1.0,84,0.00,,---,0.00,VWS V14.01,2013-01-16 15:01:00,
2013-01-16 06:06:00,13.6,9.7,30.31,SW,221,0.0,1.0,84,0.00,,---,0.00,VWS V14.01,2013-01-16 15:06:00,
2013-01-16 06:11:00,13.6,9.7,30.31,SW,221,0.0,1.0,84,0.00,,---,0.00,VWS V14.01,2013-01-16 15:11:00,
2013-01-16 06:16:00,13.5,9.6,30.31,SW,221,0.0,1.0,84,0.00,,---,0.00,VWS V14.01,2013-01-16 15:16:00,
2013-01-16 06:21:00,13.6,9.4,30.31,SW,221,0.0,2.0,83,0.00,,---,0.00,VWS V14.01,2013-01-16 15:21:00,
2013-01-16 06:26:00,13.6,11.7,30.31,SW,221,0.0,2.0,92,0.00,,---,0.00,VWS V14.01,2013-01-16 15:26:00,
2013-01-16 06:30:00,13.8,9.9,30.31,SW,221,0.0,2.0,84,0.00,,---,0.00,VWS V14.01,2013-01-16 15:30:00,
2013-01-16 06:31:00,13.7,11.8,30.31,SW,221,0.0,2.0,92,0.00,,---,0.00,VWS V14.01,2013-01-16 15:31:00,
2013-01-16 06:36:00,13.6,9.7,30.31,SW,221,0.0,1.0,84,0.00,,---,0.00,VWS V14.01,2013-01-16 15:36:00,
2013-01-16 06:41:00,13.6,11.7,30.31,SW,221,0.0,1.0,92,0.00,,---,0.00,VWS V14.01,2013-01-16 15:41:00,
2013-01-16 06:46:00,13.8,9.3,30.31,SW,221,0.0,1.0,82,0.00,,---,0.00,VWS V14.01,2013-01-16 15:46:00,
2013-01-16 06:51:00,14.0,9.5,30.31,SW,221,0.0,1.0,82,0.00,,---,0.00,VWS V14.01,2013-01-16 15:51:00,
2013-01-16 06:56:00,14.0,9.5,30.31,SW,221,0.0,1.0,82,0.00,,---,0.00,VWS V14.01,2013-01-16 15:56:00,
2013-01-16 07:00:00,14.1,9.6,30.30,SW,221,0.0,1.0,82,0.00,,---,0.00,VWS V14.01,2013-01-16 16:00:00,
2013-01-16 07:01:00,14.1,9.6,30.30,SW,221,0.0,1.0,82,0.00,,---,0.00,VWS V14.01,2013-01-16 16:01:00,
2013-01-16 07:06:00,14.1,9.6,30.30,SW,221,0.0,0.0,82,0.00,,---,0.00,VWS V14.01,2013-01-16 16:06:00,
2013-01-16 07:11:00,14.2,10.0,30.30,SW,221,0.0,0.0,83,0.00,,---,0.00,VWS V14.01,2013-01-16 16:11:00,
2013-01-16 07:16:00,14.2,9.4,30.30,SW,221,0.0,1.0,81,0.00,,---,0.00,VWS V14.01,2013-01-16 16:16:00,
2013-01-16 07:21:00,14.1,9.1,30.29,SW,221,0.0,1.0,80,0.00,,---,0.00,VWS V14.01,2013-01-16 16:21:00,
2013-01-16 07:26:00,14.1,9.4,30.29,SW,221,0.0,1.0,81,0.00,,---,0.00,VWS V14.01,2013-01-16 16:26:00,
2013-01-16 07:30:00,14.2,9.4,30.29,SW,221,0.0,1.0,81,0.00,,---,0.00,VWS V14.01,2013-01-16 16:30:00,
2013-01-16 07:31:00,14.0,9.3,30.29,SW,221,0.0,1.0,81,0.00,,---,0.00,VWS V14.01,2013-01-16 16:31:00,
2013-01-16 07:36:00,14.0,9.5,30.29,SW,221,0.0,0.0,82,0.00,,---,0.00,VWS V14.01,2013-01-16 16:36:00,
2013-01-16 07:41:00,13.9,9.2,30.29,SW,221,0.0,0.0,81,0.00,,---,0.00,VWS V14.01,2013-01-16 16:41:00,
2013-01-16 07:45:00,13.9,9.2,30.29,SW,221,0.0,1.0,81,0.00,,---,0.00,VWS V14.01,2013-01-16 16:45:00,
2013-01-16 07:50:00,13.8,8.8,30.29,SW,221,0.0,2.0,80,0.00,,---,0.00,VWS V14.01,2013-01-16 16:50:00,
2013-01-16 07:55:00,13.9,8.9,30.28,SW,221,0.0,2.0,80,0.00,,---,0.00,VWS V14.01,2013-01-16 16:55:00,
2013-01-16 08:00:00,13.9,9.2,30.28,SW,221,0.0,2.0,81,0.00,,---,0.00,VWS V14.01,2013-01-16 17:00:00,
2013-01-16 08:05:00,13.9,8.9,30.28,SW,221,0.0,1.0,80,0.00,,---,0.00,VWS V14.01,2013-01-16 17:05:00,
2013-01-16 08:10:00,13.8,8.8,30.28,SW,221,0.0,1.0,80,0.00,,---,0.00,VWS V14.01,2013-01-16 17:10:00,
2013-01-16 08:15:00,13.8,9.3,30.28,SW,221,0.0,1.0,82,0.00,,---,0.00,VWS V14.01,2013-01-16 17:15:00,
2013-01-16 08:20:00,13.9,8.9,30.28,SW,221,0.0,2.0,80,0.00,,---,0.00,VWS V14.01,2013-01-16 17:20:00,
2013-01-16 08:25:00,13.8,8.8,30.27,SW,221,0.0,2.0,80,0.00,,---,0.00,VWS V14.01,2013-01-16 17:25:00,
2013-01-16 08:30:00,13.7,8.7,30.27,SW,221,0.0,2.0,80,0.00,,---,0.00,VWS V14.01,2013-01-16 17:30:00,
2013-01-16 08:35:00,13.7,8.7,30.27,SW,221,1.0,1.0,80,0.00,,---,0.00,VWS V14.01,2013-01-16 17:35:00,
2013-01-16 08:40:00,13.8,8.8,30.27,SW,221,0.0,3.0,80,0.00,,---,0.00,VWS V14.01,2013-01-16 17:40:00,
2013-01-16 08:45:00,13.9,8.9,30.26,SW,221,0.0,3.0,80,0.00,,---,0.00,VWS V14.01,2013-01-16 17:45:00,
2013-01-16 08:50:00,14.0,8.7,30.26,SW,221,1.0,3.0,79,0.00,,---,0.00,VWS V14.01,2013-01-16 17:50:00,
2013-01-16 08:55:00,14.0,8.7,30.26,SW,221,1.0,3.0,79,0.00,,---,0.00,VWS V14.01,2013-01-16 17:55:00,
2013-01-16 09:00:00,14.1,8.8,30.26,SW,221,1.0,3.0,79,0.00,,---,0.00,VWS V14.01,2013-01-16 18:00:00,
2013-01-16 09:05:00,14.2,8.9,30.26,SW,221,2.0,3.0,79,0.00,,---,0.00,VWS V14.01,2013-01-16 18:05:00,
2013-01-16 09:10:00,14.3,8.7,30.26,SW,221,0.0,3.0,78,0.00,,---,0.00,VWS V14.01,2013-01-16 18:10:00,
2013-01-16 09:15:00,14.4,8.8,30.26,SW,221,1.0,3.0,78,0.00,,---,0.00,VWS V14.01,2013-01-16 18:15:00,
2013-01-16 09:20:00,14.4,8.5,30.26,SW,221,0.0,3.0,77,0.00,,---,0.00,VWS V14.01,2013-01-16 18:20:00,
2013-01-16 09:25:00,14.5,8.6,30.26,SW,221,0.0,3.0,77,0.00,,---,0.00,VWS V14.01,2013-01-16 18:25:00,
2013-01-16 09:30:00,14.5,8.3,30.26,SW,221,0.0,3.0,76,0.00,,---,0.00,VWS V14.01,2013-01-16 18:30:00,
2013-01-16 09:35:00,14.5,8.3,30.26,SW,221,0.0,0.0,76,0.00,,---,0.00,VWS V14.01,2013-01-16 18:35:00,
2013-01-16 09:40:00,14.5,8.3,30.25,SW,221,0.0,1.0,76,0.00,,---,0.00,VWS V14.01,2013-01-16 18:40:00,
2013-01-16 09:45:00,14.4,8.2,30.25,SW,221,0.0,1.0,76,0.00,,---,0.00,VWS V14.01,2013-01-16 18:45:00,
2013-01-16 09:50:00,14.4,8.2,30.25,SW,221,0.0,1.0,76,0.00,,---,0.00,VWS V14.01,2013-01-16 18:50:00,
2013-01-16 09:55:00,14.4,7.9,30.25,SW,221,0.0,1.0,75,0.00,,---,0.00,VWS V14.01,2013-01-16 18:55:00,
2013-01-16 10:00:00,14.5,8.0,30.25,SW,221,0.0,1.0,75,0.00,,---,0.00,VWS V14.01,2013-01-16 19:00:00,
2013-01-16 10:05:00,14.6,8.1,30.25,SW,221,1.0,1.0,75,0.00,,---,0.00,VWS V14.01,2013-01-16 19:05:00,
2013-01-16 10:10:00,14.6,8.1,30.25,SW,221,0.0,2.0,75,0.00,,---,0.00,VWS V14.01,2013-01-16 19:10:00,
2013-01-16 10:15:00,14.7,8.2,30.24,SW,221,1.0,2.0,75,0.00,,---,0.00,VWS V14.01,2013-01-16 19:15:00,
2013-01-16 10:20:00,14.8,8.0,30.24,SW,221,0.0,2.0,74,0.00,,---,0.00,VWS V14.01,2013-01-16 19:20:00,
2013-01-16 10:25:00,14.9,8.1,30.24,SW,221,1.0,2.0,74,0.00,,---,0.00,VWS V14.01,2013-01-16 19:25:00,
2013-01-16 10:30:00,14.9,8.1,30.24,SW,221,0.0,2.0,74,0.00,,---,0.00,VWS V14.01,2013-01-16 19:30:00,
2013-01-16 10:35:00,15.0,8.2,30.24,SW,221,0.0,1.0,74,0.00,,---,0.00,VWS V14.01,2013-01-16 19:35:00,
2013-01-16 10:40:00,15.1,8.3,30.24,SW,221,0.0,1.0,74,0.00,,---,0.00,VWS V14.01,2013-01-16 19:40:00,
2013-01-16 10:45:00,15.2,8.1,30.24,SW,221,0.0,1.0,73,0.00,,---,0.00,VWS V14.01,2013-01-16 19:45:00,
2013-01-16 10:50:00,15.3,8.5,30.23,SW,221,0.0,1.0,74,0.00,,---,0.00,VWS V14.01,2013-01-16 19:50:00,
2013-01-16 10:55:00,15.3,8.5,30.23,SW,221,0.0,1.0,74,0.00,,---,0.00,VWS V14.01,2013-01-16 19:55:00,
2013-01-16 11:00:00,15.3,8.5,30.23,SW,221,0.0,1.0,74,0.00,,---,0.00,VWS V14.01,2013-01-16 20:00:00,
2013-01-16 11:05:00,15.4,8.3,30.23,SW,221,0.0,2.0,73,0.00,,---,0.00,VWS V14.01,2013-01-16 20:05:00,
2013-01-16 11:10:00,15.4,8.6,30.22,SW,221,1.0,2.0,74,0.00,,---,0.00,VWS V14.01,2013-01-16 20:10:00,
2013-01-16 11:15:00,15.3,8.5,30.22,SW,221,1.0,2.0,74,0.00,,---,0.00,VWS V14.01,2013-01-16 20:15:00,
2013-01-16 11:20:00,15.3,8.5,30.22,SW,221,0.0,2.0,74,0.00,,---,0.00,VWS V14.01,2013-01-16 20:20:00,
2013-01-16 11:25:00,15.2,8.4,30.22,SW,221,0.0,2.0,74,0.00,,---,0.00,VWS V14.01,2013-01-16 20:25:00,
2013-01-16 11:30:00,15.2,8.7,30.21,SW,221,1.0,2.0,75,0.00,,---,0.00,VWS V14.01,2013-01-16 20:30:00,
2013-01-16 11:35:00,15.2,8.4,30.21,SW,221,1.0,3.0,74,0.00,,---,0.00,VWS V14.01,2013-01-16 20:35:00,
2013-01-16 11:40:00,15.2,8.7,30.21,SW,221,1.0,3.0,75,0.00,,---,0.00,VWS V14.01,2013-01-16 20:40:00,
2013-01-16 11:45:00,15.2,8.7,30.21,SW,221,0.0,3.0,75,0.00,,---,0.00,VWS V14.01,2013-01-16 20:45:00,
2013-01-16 11:50:00,15.1,8.6,30.21,SW,221,1.0,3.0,75,0.00,,---,0.00,VWS V14.01,2013-01-16 20:50:00,
2013-01-16 11:55:00,15.1,8.6,30.20,SW,221,2.0,4.0,75,0.00,,---,0.00,VWS V14.01,2013-01-16 20:55:00,
2013-01-16 12:00:00,15.0,8.5,30.20,SW,221,1.0,5.0,75,0.00,,---,0.00,VWS V14.01,2013-01-16 21:00:00,
2013-01-16 12:05:00,15.1,8.6,30.20,SW,221,1.0,2.0,75,0.00,,---,0.00,VWS V14.01,2013-01-16 21:05:00,
2013-01-16 12:10:00,15.1,8.6,30.20,SW,221,2.0,3.0,75,0.00,,---,0.00,VWS V14.01,2013-01-16 21:10:00,
2013-01-16 12:15:00,15.1,8.6,30.20,SW,221,1.0,3.0,75,0.00,,---,0.00,VWS V14.01,2013-01-16 21:15:00,
2013-01-16 12:20:00,15.2,8.7,30.19,SW,221,1.0,3.0,75,0.00,,---,0.00,VWS V14.01,2013-01-16 21:20:00,
2013-01-16 12:25:00,15.3,8.8,30.19,SW,221,2.0,4.0,75,0.00,,---,0.00,VWS V14.01,2013-01-16 21:25:00,
2013-01-16 12:30:00,15.4,8.9,30.19,SW,221,2.0,4.0,75,0.00,,---,0.00,VWS V14.01,2013-01-16 21:30:00,
2013-01-16 12:38:00,15.0,8.8,30.19,SW,221,1.0,1.0,76,0.00,,---,0.00,VWS V14.01,2013-01-16 21:38:00,
2013-01-16 12:43:00,14.9,8.7,30.19,SW,221,3.0,3.0,76,0.00,,---,0.00,VWS V14.01,2013-01-16 21:43:00,
2013-01-16 12:48:00,14.8,8.6,30.18,SW,221,1.0,4.0,76,0.00,,---,0.00,VWS V14.01,2013-01-16 21:48:00,
2013-01-16 12:53:00,14.8,8.6,30.18,SW,221,2.0,5.0,76,0.00,,---,0.00,VWS V14.01,2013-01-16 21:53:00,
2013-01-16 12:58:00,14.9,8.7,30.18,SW,221,2.0,5.0,76,0.00,,---,0.00,VWS V14.01,2013-01-16 21:58:00,
2013-01-16 13:00:00,14.9,8.7,30.18,SW,221,1.0,5.0,76,0.00,,---,0.00,VWS V14.01,2013-01-16 22:00:00,
2013-01-16 13:03:00,14.9,8.7,30.18,SW,221,1.0,4.0,76,0.00,,---,0.00,VWS V14.01,2013-01-16 22:03:00,
2013-01-16 13:08:00,15.0,8.8,30.18,SW,221,1.0,4.0,76,0.00,,---,0.00,VWS V14.01,2013-01-16 22:08:00,
2013-01-16 13:13:00,15.0,8.8,30.18,SW,221,1.0,4.0,76,0.00,,---,0.00,VWS V14.01,2013-01-16 22:13:00,
2013-01-16 13:18:00,15.1,8.9,30.17,SW,221,2.0,4.0,76,0.00,,---,0.00,VWS V14.01,2013-01-16 22:18:00,
2013-01-16 13:23:00,15.1,9.2,30.17,SW,221,1.0,4.0,77,0.00,,---,0.00,VWS V14.01,2013-01-16 22:23:00,
2013-01-16 13:28:00,15.0,9.1,30.16,SW,221,1.0,4.0,77,0.00,,---,0.00,VWS V14.01,2013-01-16 22:28:00,
2013-01-16 13:30:00,15.3,9.7,30.16,SW,221,2.0,4.0,78,0.00,,---,0.00,VWS V14.01,2013-01-16 22:30:00,
2013-01-16 13:33:00,15.0,9.4,30.16,SW,221,1.0,3.0,78,0.00,,---,0.00,VWS V14.01,2013-01-16 22:33:00,
2013-01-16 13:38:00,15.0,9.4,30.16,SW,221,1.0,3.0,78,0.00,,---,0.00,VWS V14.01,2013-01-16 22:38:00,
2013-01-16 13:43:00,15.0,9.4,30.15,SW,221,0.0,3.0,78,0.00,,---,0.00,VWS V14.01,2013-01-16 22:43:00,
2013-01-16 13:48:00,15.0,9.7,30.15,SW,221,1.0,3.0,79,0.00,,---,0.00,VWS V14.01,2013-01-16 22:48:00,
2013-01-16 13:53:00,15.1,9.5,30.15,SW,221,0.0,3.0,78,0.00,,---,0.00,VWS V14.01,2013-01-16 22:53:00,
2013-01-16 13:58:00,15.2,9.6,30.15,SW,221,0.0,3.0,78,0.00,,---,0.00,VWS V14.01,2013-01-16 22:58:00,
2013-01-16 14:00:00,15.4,9.8,30.15,SW,221,0.0,3.0,78,0.00,,---,0.00,VWS V14.01,2013-01-16 23:00:00,
2013-01-16 14:03:00,15.1,9.5,30.15,SW,221,1.0,2.0,78,0.00,,---,0.00,VWS V14.01,2013-01-16 23:03:00,
2013-01-16 14:08:00,15.0,9.4,30.14,SW,221,2.0,2.0,78,0.00,,---,0.00,VWS V14.01,2013-01-16 23:08:00,
2013-01-16 14:13:00,14.9,9.3,30.14,SW,221,2.0,4.0,78,0.00,,---,0.00,VWS V14.01,2013-01-16 23:13:00,
2013-01-16 14:18:00,14.8,9.5,30.14,SW,221,1.0,4.0,79,0.00,,---,0.00,VWS V14.01,2013-01-16 23:18:00,
2013-01-16 14:22:00,14.8,9.5,30.14,SW,221,1.0,4.0,79,0.00,,---,0.00,VWS V14.01,2013-01-16 23:22:00,
2013-01-16 14:27:00,14.9,9.3,30.14,SW,221,1.0,4.0,78,0.00,,---,0.00,VWS V14.01,2013-01-16 23:27:00,
2013-01-16 14:30:00,15.1,9.5,30.13,SW,221,1.0,4.0,78,0.00,,---,0.00,VWS V14.01,2013-01-16 23:30:00,
2013-01-16 14:32:00,15.2,9.9,30.13,SW,221,1.0,2.0,79,0.00,,---,0.00,VWS V14.01,2013-01-16 23:32:00,
2013-01-16 14:37:00,15.4,9.5,30.13,SW,221,0.0,2.0,77,0.00,,---,0.00,VWS V14.01,2013-01-16 23:37:00,
2013-01-16 14:42:00,15.6,9.7,30.13,SW,221,1.0,3.0,77,0.00,,---,0.00,VWS V14.01,2013-01-16 23:42:00,
2013-01-16 14:51:00,15.7,9.8,30.13,SW,221,1.0,1.0,77,0.00,,---,0.00,VWS V14.01,2013-01-16 23:51:00,
2013-01-16 14:56:00,15.8,9.9,30.12,SW,221,1.0,4.0,77,0.00,,---,0.00,VWS V14.01,2013-01-16 23:56:00,
2013-01-16 15:00:00,15.6,10.0,30.12,SW,221,1.0,4.0,78,0.00,,---,0.00,VWS V14.01,2013-01-17 00:00:00,
2013-01-16 15:01:00,15.6,10.0,30.12,SW,221,1.0,4.0,78,0.00,,---,0.00,VWS V14.01,2013-01-17 00:01:00,
2013-01-16 15:06:00,15.1,9.5,30.11,SW,221,0.0,3.0,78,0.00,,---,0.00,VWS V14.01,2013-01-17 00:06:00,
2013-01-16 15:11:00,14.7,9.4,30.11,SW,221,0.0,3.0,79,0.00,,---,0.00,VWS V14.01,2013-01-17 00:11:00,
2013-01-16 15:16:00,14.6,9.6,30.12,SW,221,0.0,3.0,80,0.00,,---,0.00,VWS V14.01,2013-01-17 00:16:00,
2013-01-16 15:21:00,14.8,9.2,30.11,SW,221,0.0,3.0,78,0.00,,---,0.00,VWS V14.01,2013-01-17 00:21:00,
2013-01-16 15:26:00,15.0,9.7,30.11,SW,221,0.0,3.0,79,0.00,,---,0.00,VWS V14.01,2013-01-17 00:26:00,
2013-01-16 15:30:00,14.9,9.3,30.11,SW,221,0.0,3.0,78,0.00,,---,0.00,VWS V14.01,2013-01-17 00:30:00,
2013-01-16 15:31:00,14.9,9.6,30.11,SW,221,0.0,3.0,79,0.00,,---,0.00,VWS V14.01,2013-01-17 00:31:00,
2013-01-16 15:36:00,14.8,9.2,30.11,SW,221,1.0,2.0,78,0.00,,---,0.00,VWS V14.01,2013-01-17 00:36:00,
2013-01-16 15:41:00,14.8,9.8,30.11,SW,221,0.0,2.0,80,0.00,,---,0.00,VWS V14.01,2013-01-17 00:41:00,
2013-01-16 15:46:00,14.7,9.9,30.11,SW,221,0.0,2.0,81,0.00,,---,0.00,VWS V14.01,2013-01-17 00:46:00,
2013-01-16 15:51:00,14.5,9.7,30.10,SW,221,0.0,2.0,81,0.00,,---,0.00,VWS V14.01,2013-01-17 00:51:00,
2013-01-16 15:56:00,14.3,9.3,30.11,SW,221,0.0,2.0,80,0.00,,---,0.00,VWS V14.01,2013-01-17 00:56:00,
2013-01-16 16:00:00,14.0,9.0,30.10,SW,221,2.0,2.0,80,0.00,,---,0.00,VWS V14.01,2013-01-17 01:00:00,
2013-01-16 16:01:00,14.0,9.0,30.10,SW,221,1.0,2.0,80,0.00,,---,0.00,VWS V14.01,2013-01-17 01:01:00,
2013-01-16 16:06:00,14.0,8.7,30.10,SW,221,1.0,2.0,79,0.00,,---,0.00,VWS V14.01,2013-01-17 01:06:00,
2013-01-16 16:10:00,14.3,9.0,30.10,SW,221,0.0,2.0,79,0.00,,---,0.00,VWS V14.01,2013-01-17 01:10:00,
2013-01-16 16:15:00,14.6,9.0,30.10,SW,221,0.0,2.0,78,0.00,,---,0.00,VWS V14.01,2013-01-17 01:15:00,
2013-01-16 16:20:00,14.6,9.0,30.10,SW,221,0.0,3.0,78,0.00,,---,0.00,VWS V14.01,2013-01-17 01:20:00,
2013-01-16 16:25:00,14.6,9.3,30.10,SW,221,0.0,3.0,79,0.00,,---,0.00,VWS V14.01,2013-01-17 01:25:00,
2013-01-16 16:30:00,14.7,9.4,30.10,SW,221,0.0,3.0,79,0.00,,---,0.00,VWS V14.01,2013-01-17 01:30:00,
2013-01-16 16:35:00,14.9,9.3,30.09,SW,221,1.0,2.0,78,0.00,,---,0.00,VWS V14.01,2013-01-17 01:35:00,
2013-01-16 16:40:00,15.0,9.1,30.09,SW,221,3.0,3.0,77,0.00,,---,0.00,VWS V14.01,2013-01-17 01:40:00,
2013-01-16 16:45:00,15.1,9.5,30.09,SW,221,0.0,3.0,78,0.00,,---,0.00,VWS V14.01,2013-01-17 01:45:00,
2013-01-16 16:50:00,14.8,9.5,30.09,SW,221,1.0,3.0,79,0.00,,---,0.00,VWS V14.01,2013-01-17 01:50:00,
2013-01-16 16:55:00,14.5,9.2,30.08,SW,221,2.0,3.0,79,0.00,,---,0.00,VWS V14.01,2013-01-17 01:55:00,
2013-01-16 17:00:00,14.5,9.2,30.08,SW,221,2.0,4.0,79,0.00,,---,0.00,VWS V14.01,2013-01-17 02:00:00,
2013-01-16 17:05:00,14.4,9.1,30.08,SW,221,2.0,3.0,79,0.00,,---,0.00,VWS V14.01,2013-01-17 02:05:00,
2013-01-16 17:10:00,14.3,9.0,30.07,SW,221,1.0,4.0,79,0.00,,---,0.00,VWS V14.01,2013-01-17 02:10:00,
2013-01-16 17:15:00,14.4,9.1,30.07,SW,221,1.0,4.0,79,0.00,,---,0.00,VWS V14.01,2013-01-17 02:15:00,
2013-01-16 17:20:00,14.7,9.4,30.07,SW,221,2.0,5.0,79,0.00,,---,0.00,VWS V14.01,2013-01-17 02:20:00,
2013-01-16 17:25:00,15.2,9.0,30.07,SW,221,0.0,5.0,76,0.00,,---,0.00,VWS V14.01,2013-01-17 02:25:00,
2013-01-16 17:30:00,15.4,9.2,30.07,SW,221,0.0,5.0,76,0.00,,---,0.00,VWS V14.01,2013-01-17 02:30:00,
2013-01-16 17:35:00,15.4,9.2,30.07,SW,221,0.0,3.0,76,0.00,,---,0.00,VWS V14.01,2013-01-17 02:35:00,
2013-01-16 17:40:00,15.4,8.9,30.07,SW,221,1.0,4.0,75,0.00,,---,0.00,VWS V14.01,2013-01-17 02:40:00,
2013-01-16 17:45:00,15.5,9.3,30.07,SW,221,0.0,4.0,76,0.00,,---,0.00,VWS V14.01,2013-01-17 02:45:00,
2013-01-16 17:50:00,15.3,9.1,30.07,SW,221,0.0,4.0,76,0.00,,---,0.00,VWS V14.01,2013-01-17 02:50:00,
2013-01-16 17:55:00,14.9,8.7,30.06,SW,221,0.0,4.0,76,0.00,,---,0.00,VWS V14.01,2013-01-17 02:55:00,
2013-01-16 18:00:00,14.4,8.2,30.06,SW,221,0.0,4.0,76,0.00,,---,0.00,VWS V14.01,2013-01-17 03:00:00,
2013-01-16 18:05:00,14.1,8.2,30.06,SW,221,0.0,0.0,77,0.00,,---,0.00,VWS V14.01,2013-01-17 03:05:00,
2013-01-16 18:10:00,13.8,7.9,30.06,SW,221,0.0,0.0,77,0.00,,---,0.00,VWS V14.01,2013-01-17 03:10:00,
2013-01-16 18:15:00,13.7,7.8,30.06,SW,221,0.0,0.0,77,0.00,,---,0.00,VWS V14.01,2013-01-17 03:15:00,
2013-01-16 18:20:00,13.5,8.2,30.06,SW,221,0.0,0.0,79,0.00,,---,0.00,VWS V14.01,2013-01-17 03:20:00,
2013-01-16 18:25:00,13.3,7.7,30.06,SW,221,0.0,0.0,78,0.00,,---,0.00,VWS V14.01,2013-01-17 03:25:00,
2013-01-16 18:30:00,13.1,7.8,30.06,SW,221,0.0,0.0,79,0.00,,---,0.00,VWS V14.01,2013-01-17 03:30:00,
2013-01-16 18:35:00,13.0,7.7,30.05,SW,221,0.0,0.0,79,0.00,,---,0.00,VWS V14.01,2013-01-17 03:35:00,
2013-01-16 18:40:00,13.0,7.7,30.05,SW,221,0.0,0.0,79,0.00,,---,0.00,VWS V14.01,2013-01-17 03:40:00,
2013-01-16 18:45:00,12.9,7.3,30.05,SW,221,0.0,0.0,78,0.00,,---,0.00,VWS V14.01,2013-01-17 03:45:00,
2013-01-16 18:50:00,12.8,7.5,30.05,SW,221,0.0,0.0,79,0.00,,---,0.00,VWS V14.01,2013-01-17 03:50:00,
2013-01-16 18:55:00,12.8,7.2,30.05,SW,221,0.0,0.0,78,0.00,,---,0.00,VWS V14.01,2013-01-17 03:55:00,
2013-01-16 19:00:00,13.0,7.4,30.04,SW,221,0.0,0.0,78,0.00,,---,0.00,VWS V14.01,2013-01-17 04:00:00,
2013-01-16 19:05:00,13.1,7.5,30.04,SW,221,0.0,0.0,78,0.00,,---,0.00,VWS V14.01,2013-01-17 04:05:00,
2013-01-16 19:10:00,13.2,7.6,30.04,SW,221,0.0,0.0,78,0.00,,---,0.00,VWS V14.01,2013-01-17 04:10:00,
2013-01-16 19:15:00,13.3,8.0,30.04,SW,221,0.0,0.0,79,0.00,,---,0.00,VWS V14.01,2013-01-17 04:15:00,
2013-01-16 19:20:00,13.4,7.8,30.04,SW,221,0.0,0.0,78,0.00,,---,0.00,VWS V14.01,2013-01-17 04:20:00,
2013-01-16 19:25:00,13.6,7.7,30.03,SW,221,0.0,0.0,77,0.00,,---,0.00,VWS V14.01,2013-01-17 04:25:00,
2013-01-16 19:30:00,13.7,7.8,30.03,SW,221,0.0,0.0,77,0.00,,---,0.00,VWS V14.01,2013-01-17 04:30:00,
2013-01-16 19:35:00,13.9,8.0,30.03,SW,221,0.0,0.0,77,0.00,,---,0.00,VWS V14.01,2013-01-17 04:35:00,
2013-01-16 19:40:00,14.1,8.2,30.03,SW,221,0.0,0.0,77,0.00,,---,0.00,VWS V14.01,2013-01-17 04:40:00,
2013-01-16 19:45:00,14.1,8.2,30.03,SW,221,0.0,0.0,77,0.00,,---,0.00,VWS V14.01,2013-01-17 04:45:00,
2013-01-16 19:50:00,14.1,8.5,30.03,SW,221,0.0,0.0,78,0.00,,---,0.00,VWS V14.01,2013-01-17 04:50:00,
2013-01-16 19:55:00,14.1,8.8,30.03,SW,221,0.0,1.0,79,0.00,,---,0.00,VWS V14.01,2013-01-17 04:55:00,
2013-01-16 20:00:00,14.1,9.1,30.02,SW,221,0.0,1.0,80,0.00,,---,0.00,VWS V14.01,2013-01-17 05:00:00,
2013-01-16 20:01:00,14.1,9.1,30.03,SW,221,0.0,1.0,80,0.00,,---,0.00,VWS V14.01,2013-01-17 05:01:00,
2013-01-16 20:06:00,14.4,8.5,30.02,SW,221,0.0,4.0,77,0.00,,---,0.00,VWS V14.01,2013-01-17 05:06:00,
2013-01-16 20:11:00,14.6,8.7,30.02,SW,221,4.0,4.0,77,0.00,,---,0.00,VWS V14.01,2013-01-17 05:11:00,
2013-01-16 20:16:00,14.8,8.6,30.02,SW,221,1.0,4.0,76,0.00,,---,0.00,VWS V14.01,2013-01-17 05:16:00,
2013-01-16 20:21:00,14.9,8.7,30.02,SW,221,0.0,4.0,76,0.00,,---,0.00,VWS V14.01,2013-01-17 05:21:00,
2013-01-16 20:26:00,14.8,8.6,30.01,SW,221,1.0,4.0,76,0.00,,---,0.00,VWS V14.01,2013-01-17 05:26:00,
2013-01-16 20:30:00,14.8,8.6,30.01,SW,221,1.0,4.0,76,0.00,,---,0.00,VWS V14.01,2013-01-17 05:30:00,
2013-01-16 20:31:00,14.8,8.6,30.01,SW,221,1.0,4.0,76,0.00,,---,0.00,VWS V14.01,2013-01-17 05:31:00,
2013-01-16 20:36:00,14.8,8.6,30.01,SW,221,0.0,2.0,76,0.00,,---,0.00,VWS V14.01,2013-01-17 05:36:00,
2013-01-16 20:41:00,14.8,8.3,30.01,SW,221,0.0,4.0,75,0.00,,---,0.00,VWS V14.01,2013-01-17 05:41:00,
2013-01-16 20:46:00,14.8,8.6,30.01,SW,221,0.0,4.0,76,0.00,,---,0.00,VWS V14.01,2013-01-17 05:46:00,
2013-01-16 20:51:00,14.7,8.5,30.01,SW,221,0.0,4.0,76,0.00,,---,0.00,VWS V14.01,2013-01-17 05:51:00,
2013-01-16 20:56:00,14.7,9.1,30.01,SW,221,0.0,4.0,78,0.00,,---,0.00,VWS V14.01,2013-01-17 05:56:00,
2013-01-16 21:00:00,14.7,8.8,30.01,SW,221,1.0,4.0,77,0.00,,---,0.00,VWS V14.01,2013-01-17 06:00:00,
2013-01-16 21:01:00,14.6,8.7,30.01,SW,221,0.0,4.0,77,0.00,,---,0.00,VWS V14.01,2013-01-17 06:01:00,
2013-01-16 21:06:00,14.4,8.2,30.01,SW,221,0.0,1.0,76,0.00,,---,0.00,VWS V14.01,2013-01-17 06:06:00,
2013-01-16 21:11:00,14.1,8.2,30.01,SW,221,0.0,1.0,77,0.00,,---,0.00,VWS V14.01,2013-01-17 06:11:00,
2013-01-16 21:16:00,13.7,7.8,30.01,SW,221,0.0,1.0,77,0.00,,---,0.00,VWS V14.01,2013-01-17 06:16:00,
2013-01-16 21:21:00,13.4,7.8,30.00,SW,221,0.0,1.0,78,0.00,,---,0.00,VWS V14.01,2013-01-17 06:21:00,
2013-01-16 21:26:00,13.1,7.8,30.00,SW,221,0.0,1.0,79,0.00,,---,0.00,VWS V14.01,2013-01-17 06:26:00,
2013-01-16 21:30:00,12.9,7.3,30.00,SW,221,0.0,1.0,78,0.00,,---,0.00,VWS V14.01,2013-01-17 06:30:00,
2013-01-16 21:31:00,12.9,7.3,30.00,SW,221,0.0,1.0,78,0.00,,---,0.00,VWS V14.01,2013-01-17 06:31:00,
2013-01-16 21:36:00,12.7,7.7,30.00,SW,221,0.0,0.0,80,0.00,,---,0.00,VWS V14.01,2013-01-17 06:36:00,
2013-01-16 21:41:00,12.6,7.9,30.00,SW,221,0.0,0.0,81,0.00,,---,0.00,VWS V14.01,2013-01-17 06:41:00,
2013-01-16 21:46:00,12.6,7.6,30.00,SW,221,0.0,0.0,80,0.00,,---,0.00,VWS V14.01,2013-01-17 06:46:00,
2013-01-16 21:51:00,12.5,7.5,30.00,SW,221,0.0,0.0,80,0.00,,---,0.00,VWS V14.01,2013-01-17 06:51:00,
2013-01-16 21:56:00,12.4,7.7,30.00,SW,221,0.0,0.0,81,0.00,,---,0.00,VWS V14.01,2013-01-17 06:56:00,
2013-01-16 22:00:00,12.3,7.6,30.00,SW,221,0.0,0.0,81,0.00,,---,0.00,VWS V14.01,2013-01-17 07:00:00,
2013-01-16 22:01:00,12.3,7.6,30.00,SW,221,0.0,0.0,81,0.00,,---,0.00,VWS V14.01,2013-01-17 07:01:00,
2013-01-16 22:06:00,12.2,7.2,30.00,SW,221,0.0,0.0,80,0.00,,---,0.00,VWS V14.01,2013-01-17 07:06:00,
2013-01-16 22:11:00,12.1,7.4,29.99,SW,221,0.0,0.0,81,0.00,,---,0.00,VWS V14.01,2013-01-17 07:11:00,
2013-01-16 22:16:00,12.1,7.4,29.99,SW,221,0.0,0.0,81,0.00,,---,0.00,VWS V14.01,2013-01-17 07:16:00,
2013-01-16 22:21:00,12.1,7.7,29.99,SW,221,0.0,0.0,82,0.00,,---,0.00,VWS V14.01,2013-01-17 07:21:00,
2013-01-16 22:26:00,12.1,7.4,29.99,SW,221,0.0,0.0,81,0.00,,---,0.00,VWS V14.01,2013-01-17 07:26:00,
2013-01-16 22:30:00,12.1,7.4,29.99,SW,221,0.0,0.0,81,0.00,,---,0.00,VWS V14.01,2013-01-17 07:30:00,
2013-01-16 22:31:00,12.0,7.0,29.99,SW,221,0.0,0.0,80,0.00,,---,0.00,VWS V14.01,2013-01-17 07:31:00,
2013-01-16 22:36:00,12.0,7.3,29.99,SW,221,0.0,0.0,81,0.00,,---,0.00,VWS V14.01,2013-01-17 07:36:00,
2013-01-16 22:41:00,12.0,7.3,29.99,SW,221,0.0,0.0,81,0.00,,---,0.00,VWS V14.01,2013-01-17 07:41:00,
2013-01-16 22:46:00,12.1,7.4,29.99,SW,221,0.0,0.0,81,0.00,,---,0.00,VWS V14.01,2013-01-17 07:46:00,
2013-01-16 22:51:00,12.2,7.5,29.99,SW,221,0.0,0.0,81,0.00,,---,0.00,VWS V14.01,2013-01-17 07:51:00,
2013-01-16 22:56:00,12.1,7.4,29.99,SW,221,0.0,0.0,81,0.00,,---,0.00,VWS V14.01,2013-01-17 07:56:00,
2013-01-16 23:00:00,12.1,7.7,29.99,SW,221,0.0,0.0,82,0.00,,---,0.00,VWS V14.01,2013-01-17 08:00:00,
2013-01-16 23:01:00,12.1,7.7,29.99,SW,221,0.0,0.0,82,0.00,,---,0.00,VWS V14.01,2013-01-17 08:01:00,
2013-01-16 23:06:00,12.2,7.8,29.99,SW,221,0.0,2.0,82,0.00,,---,0.00,VWS V14.01,2013-01-17 08:06:00,
2013-01-16 23:11:00,12.5,8.1,29.99,SW,221,0.0,2.0,82,0.00,,---,0.00,VWS V14.01,2013-01-17 08:11:00,
2013-01-16 23:16:00,12.5,8.1,29.99,SW,221,0.0,2.0,82,0.00,,---,0.00,VWS V14.01,2013-01-17 08:16:00,
2013-01-16 23:21:00,12.7,8.5,29.99,SW,221,2.0,2.0,83,0.00,,---,0.00,VWS V14.01,2013-01-17 08:21:00,
2013-01-16 23:26:00,12.8,8.6,29.99,SW,221,0.0,2.0,83,0.00,,---,0.00,VWS V14.01,2013-01-17 08:26:00,
2013-01-16 23:30:00,12.8,8.6,29.98,SW,221,0.0,2.0,83,0.00,,---,0.00,VWS V14.01,2013-01-17 08:30:00,
2013-01-16 23:31:00,12.8,8.4,29.98,SW,221,0.0,2.0,82,0.00,,---,0.00,VWS V14.01,2013-01-17 08:31:00,
2013-01-16 23:36:00,12.8,8.6,29.98,SW,221,1.0,2.0,83,0.00,,---,0.00,VWS V14.01,2013-01-17 08:36:00,
2013-01-16 23:45:00,12.8,8.9,29.98,SW,221,0.0,0.0,84,0.00,,---,0.00,VWS V14.01,2013-01-17 08:45:00,
2013-01-16 23:50:00,12.9,8.7,29.98,SW,221,1.0,3.0,83,0.00,,---,0.00,VWS V14.01,2013-01-17 08:50:00,
2013-01-16 23:55:00,12.9,9.0,29.98,SW,221,0.0,3.0,84,0.00,,---,0.00,VWS V14.01,2013-01-17 08:55:00,